Location: Newark
(49.8348°N, 24.0280°E)
Time: 18:03:33
(UTC+00:00)

Transit 2A - Pass Details

Date: 24 January 2020
Orbit: 600 x 959 km, 66.7° (Epoch: 22 February)

Event Time Altitude Azimuth Distance (km) Brightness Sun altitude
Rises 21:55:28 0° 295° (WNW) 2,853 - -58.3°
Reaches altitude 10° 21:59:54 10° 337° (NNW) 1,972 - -58.5°
Maximum altitude 22:00:39 10° 347° (NNW) 1,955 - -58.5°
Drops below altitude 10° 22:01:23 10° 357° (N) 1,986 - -58.6°
Sets 22:05:59 0° 39° (NE) 2,960 - -58.7°
